Dewpoint
22 15 14 19 21 20 19 19 19 20 21 21 22 23 23 24 26 29 39 41 42 43 44 44 46 48 50 53 54 55 52 57 58 69 70 70 69 70 70 70 72 71 71 71
18 18 19 19 19 20 20 20 20 21 21 22 23 22 23 25 25 39 41 41 42 42 43 44 45 46 50 52 55 56 55 54 57 62 68 69 69 69 69 70 72 72 71 72
18 15 19 19 19 20 21 21 21 21 23 23 23 17 20 22 30 39 41 42 42 43 44 45 45 46 46 51 54 55 57 53 55 63 68 71 71 70 69 69 69 70 70 71
19 19 18 18 19 21 21 22 22 23 21 16 22 9 18 22 29 37 40 41 42 43 43 44 45 46 46 47 51 55 58 54 54 62 65 69 65 66 65 64 63 66 69 69
19 19 19 20 21 24 22 24 24 24 22 22 17 17 21 28 24 25 38 41 42 43 44 44 44 45 45 47 48 53 58 59 57 62 65 66 66 63 62 63 66 68 69 69
20 22 21 22 24 25 26 24 24 24 21 17 21 22 17 20 23 25 37 41 40 38 41 45 46 46 45 47 48 50 55 58 60 61 65 67 66 64 61 63 62 61 62 64
25 23 24 25 23 26 26 26 20 15 13 12 25 21 19 25 26 32 39 39 38 37 34 42 44 44 45 47 48 48 51 56 58 60 61 63 64 64 63 64 62 63 61 61
26 18 24 25 25 25 26 25 20 16 14 15 21 20 20 32 39 41 42 42 41 36 36 39 45 44 43 47 48 49 50 55 58 58 61 63 64 59 60 62 61 63 63 63
25 24 26 26 28 27 25 24 25 28 25 23 18 23 26 33 39 39 38 38 37 37 40 43 46 46 47 49 49 49 49 53 57 59 60 61 61 62 63 66 68 65 67 66
30 26 29 28 28 27 26 26 27 30 24 17 14 19 18 25 32 30 36 36 38 41 41 44 46 47 48 50 49 50 51 50 55 57 60 61 62 64 65 66 66 66 65 63
31 30 26 29 26 23 24 26 28 30 31 25 17 14 28 30 30 31 34 36 39 39 39 43 48 49 50 49 51 51 50 48 51 54 58 61 61 62 63 63 62 61 62 62
35 34 27 24 27 30 30 29 30 33 27 31 32 28 28 31 33 34 32 36 38 39 39 38 39 39 44 49 50 52 51 48 49 51 56 58 60 61 61 60 61 61 61 62
36 34 28 19 22 29 24 27 28 31 32 29 27 24 32 32 32 33 36 37 40 39 40 41 38 37 39 40 46 48 50 48 48 50 52 54 58 59 60 60 61 60 60 59
39 37 30 23 20 26 27 28 28 32 32 27 27 27 29 31 34 38 39 40 38 39 40 40 39 38 39 43 44 44 47 48 48 50 51 53 58 60 60 59 58 57 56 56
36 33 33 30 27 28 28 29 29 29 29 31 29 29 31 36 40 42 42 40 38 38 38 37 38 39 40 42 45 45 46 46 46 48 51 55 57 58 58 58 55 53 52 51
35 32 31 29 29 31 31 30 29 31 31 31 32 32 41 42 41 42 42 39 38 37 36 37 37 37 38 40 42 42 44 44 46 46 51 53 53 55 55 54 52 50 48 47
36 35 33 24 30 28 26 26 28 29 33 35 33 35 39 38 39 39 39 39 39 37 37 38 37 38 40 40 42 42 42 44 45 46 47 50 52 53 52 51 49 48 46 45
34 33 36 31 29 22 22 27 30 32 32 35 34 37 39 38 38 38 40 40 38 38 38 38 38 40 42 41 41 42 43 44 45 46 47 50 52 50 49 48 47 45 44 43
37 37 34 29 27 24 24 33 32 30 30 35 37 37 37 39 39 38 40 39 39 39 39 40 41 42 43 43 43 44 44 44 45 45 47 51 51 48 46 44 43 43 42 42
36 37 34 30 24 20 28 36 32 34 30 38 35 37 38 39 35 37 38 38 39 40 41 41 42 42 43 44 44 44 44 45 44 45 49 50 48 45 44 43 42 43 42 42
29 30 29 29 26 27 31 33 32 29 30 37 37 39 40 37 38 38 39 39 40 41 41 43 43 43 44 44 44 43 44 44 45 48 49 47 45 44 43 42 43 42 41 41
28 28 29 29 27 24 35 32 31 36 38 39 40 39 36 38 39 39 40 40 40 41 41 42 42 42 44 45 44 44 45 46 48 48 46 45 44 43 42 42 42 42 42 41
30 33 33 33 31 36 36 38 39 39 40 39 39 39 38 39 39 40 39 40 41 40 42 42 43 43 42 43 45 45 46 47 46 47 44 43 42 42 42 42 42 41 41 41
32 34 35 33 34 35 37 37 39 41 40 39 38 39 39 39 40 40 39 39 39 41 40 42 41 41 42 43 45 46 46 46 46 44 43 43 42 41 42 42 43 42 42 43
35 36 36 35 36 36 36 39 40 41 39 38 38 39 40 41 40 39 38 39 39 40 40 41 41 42 42 44 46 46 46 46 44 43 43 43 42 41 42 42 43 44 42 41
39 39 36 35 37 39 38 41 41 38 37 38 40 40 40 40 38 39 38 39 39 39 40 41 42 43 43 45 46 45 46 44 43 42 42 41 40 41 41 40 40 38 38 38
Lifted_Index
8 7 6 7 7 7 7 6 6 7 8 8 6 6 6 7 7 6 5 5 5 5 5 5 5 5 5 4 4 5 5 5 2 -4 -8 -9 -10 -10 -10 -9 -8 -6 -5 -5
7 7 7 8 8 8 7 6 6 7 8 7 6 6 6 7 7 6 5 5 5 5 5 5 4 4 4 4 4 4 4 4 2 -3 -8 -10 -11 -11 -11 -10 -9 -8 -6 -6
7 7 7 8 8 7 7 6 6 7 7 7 6 5 6 7 6 5 4 4 4 4 4 4 4 4 3 3 3 3 3 4 2 -2 -7 -10 -12 -12 -12 -11 -10 -9 -7 -7
7 7 7 7 7 7 6 6 7 6 6 5 4 4 5 6 5 4 3 3 3 3 3 4 3 3 2 2 2 2 2 3 2 -2 -6 -10 -11 -11 -10 -10 -9 -8 -8 -7
7 7 7 7 7 7 6 6 7 6 5 4 4 4 4 5 5 4 3 2 3 3 3 3 3 2 2 2 1 1 1 1 0 -2 -6 -9 -10 -9 -8 -8 -8 -8 -8 -7
8 8 7 7 7 6 6 6 5 5 4 3 4 4 4 5 5 4 3 2 2 3 3 3 2 2 2 2 1 0 -0 -1 -2 -4 -6 -9 -9 -7 -7 -7 -8 -7 -7 -7
7 7 7 7 6 6 5 5 3 2 2 2 4 4 4 4 4 3 2 1 2 3 3 3 2 2 2 2 1 1 -0 -1 -2 -4 -6 -7 -7 -7 -6 -7 -7 -7 -7 -6
6 6 6 6 5 5 5 4 3 2 1 2 3 4 4 3 2 1 1 1 2 3 3 2 2 2 2 1 1 1 1 -1 -2 -3 -5 -6 -6 -6 -6 -6 -7 -7 -7 -7
5 5 6 6 5 5 5 4 4 3 2 2 3 3 3 2 1 0 0 1 2 2 2 1 1 1 1 1 1 1 2 0 -2 -3 -4 -5 -5 -6 -6 -7 -7 -7 -7 -7
5 5 6 5 5 5 4 4 4 3 2 1 2 3 2 2 1 0 1 1 2 2 2 1 0 -0 0 1 1 2 2 2 -0 -2 -3 -4 -5 -5 -5 -6 -6 -6 -5 -5
6 5 5 5 5 5 5 4 3 2 1 1 1 2 2 1 1 1 1 1 1 2 2 1 1 -0 -0 1 1 2 3 2 1 -0 -2 -3 -4 -4 -4 -4 -4 -4 -3 -3
6 5 4 4 5 5 5 4 3 2 1 1 1 1 1 0 0 1 1 1 1 1 2 2 1 1 1 1 2 2 3 3 2 1 -0 -1 -2 -3 -3 -2 -2 -2 -2 -2
6 5 4 4 5 5 5 4 3 2 1 1 1 0 0 -0 0 1 1 0 0 1 1 2 2 2 2 2 2 3 3 3 3 2 1 0 -1 -2 -2 -1 -1 -1 -1 -1
6 5 4 4 5 5 4 3 2 2 1 1 0 -0 -0 -0 0 0 0 0 0 1 1 2 2 2 2 3 3 3 4 4 4 3 2 1 -0 -1 -1 -1 -0 -0 -0 -0
6 5 5 5 5 4 3 2 2 1 1 0 0 -0 -0 -0 0 1 0 0 1 1 1 2 2 2 3 3 4 5 5 5 5 4 3 2 1 1 0 0 0 0 0 0
7 6 6 5 4 4 3 2 1 1 0 0 -0 -0 0 0 1 1 1 1 1 2 2 3 3 4 4 5 5 6 6 5 5 5 4 3 3 2 2 1 1 1 1 1
6 6 5 4 4 3 2 2 2 1 0 0 0 0 1 1 1 1 1 1 2 3 3 4 5 5 6 6 6 6 6 6 6 6 5 4 4 4 3 2 2 2 2 1
6 6 5 4 3 3 2 2 2 1 1 0 0 1 1 2 2 2 2 2 3 4 5 6 6 6 6 7 7 7 7 6 6 6 6 5 5 4 4 3 2 2 2 2
5 5 5 4 3 2 2 2 2 2 2 1 1 1 2 2 3 3 3 3 5 6 7 7 7 7 7 7 7 7 7 7 7 6 6 5 5 5 4 3 2 2 2 2
5 5 5 4 3 2 3 2 2 2 2 2 2 2 3 3 4 4 5 5 6 7 8 8 8 8 8 8 8 8 8 7 7 7 6 6 5 4 3 3 3 3 3 4
6 5 5 4 3 3 3 3 3 3 3 3 3 4 4 5 5 6 7 7 8 8 8 8 8 8 8 8 8 8 8 8 7 7 7 6 5 4 4 4 4 5 5 6
5 5 5 4 3 3 3 4 4 4 4 4 4 5 6 7 7 8 8 9 9 9 9 9 9 9 9 9 9 8 8 8 8 7 6 5 4 4 5 5 6 7 7 8
5 5 5 4 4 4 4 4 4 4 5 5 5 6 8 8 8 9 9 10 10 10 10 10 9 9 9 9 9 9 8 8 8 7 6 5 5 5 6 7 7 8 9 9
6 6 5 4 4 4 4 4 4 5 5 6 7 8 9 9 9 10 10 10 10 10 9 9 9 8 8 8 9 9 9 8 7 6 5 5 5 6 7 8 9 10 11 11
5 5 5 4 4 4 5 5 5 5 6 7 8 9 10 10 10 10 10 10 10 10 9 9 8 8 8 8 9 9 9 8 7 5 5 5 6 7 8 10 11 12 12 13
5 5 4 4 4 5 5 5 5 6 7 8 9 10 10 10 10 11 10 10 10 10 9 8 8 8 8 8 8 9 9 8 6 5 4 5 6 7 8 11 12 13 13 13